METEOR-M2 4

Last updated on Sun Oct 06 2024 00:02:18 GMT+0000 (Coordinated Universal Time)

1 59051U 24039A 24279.51538061 .00000417 00000+0 20716-3 0 9991 2 59051 98.6120 238.7607 0007357 155.9496 204.2027 14.22277320 31171
UTC large
Height (km)
Speed (km/s)
/
Latitude / Longitude
Inclination (degrees)
Orbital Period (minutes)
Azimuth
Elevation
Range (km)
Doppler Factor

Next 0 passes for location: London (51.5072 / 0.1276)

Sorry there are no passes over London.